Ludington, MI

9:25 AM EDT on April 24, 2017 (GMT -0400)
Mason County

Weather History for KLDM - November, 2012

Change the Weather History Date:

Saturday, November 17, 2012

  Actual Average Record
Temperature  
Mean Temperature 38 °F -  
Max Temperature 50 °F 45 °F 68 °F (2016)
Min Temperature 25 °F 32 °F 4 °F (1959)
Degree Days  
Heating Degree Days 28    
Moisture  
Dew Point 33 °F    
Average Humidity 82    
Maximum Humidity 92    
Minimum Humidity 54    
Precipitation  
Precipitation 0.00 in - - ()
Sea Level Pressure  
Sea Level Pressure 30.51 in    
Wind  
Wind Speed 4 mph (SSE)    
Max Wind Speed 10 mph    
Max Gust Speed -    
Visibility 4 miles    
Events Fog , Rain    
Averages and records for this station are not official NWS values.
T = Trace of Precipitation, MM = Missing Value Source: NWS Daily Summary

Daily Weather History Graph

Daily Weather History Graph

Search for Another Location

Airport or City:

Trip Planner

Search our weather history database for the weather conditions in past years. The results will help you decide how hot, cold, wet, or windy it might be!

Date:

Astronomy

Nov. 17, 2012 Rise Set
Actual Time 7:43 AM EST 5:17 PM EST
Civil Twilight 7:12 AM EST 5:48 PM EST
Nautical Twilight 6:37 AM EST 6:23 PM EST
Astronomical Twilight 6:03 AM EST 6:57 PM EST
Moon 11:28 AM EST (11/17) 9:27 PM EST (11/17)
Length of Visible Light 10h 36m
Length of Day
9h 33m
Waxing Crescent, 20% of the Moon is Illuminated
Nov 17
Waxing Crescent
Nov 20
First Quarter
Nov 28
Full
Dec 6
Last Quarter
Dec 13
New

Hourly Weather History & Observations

Time (EST) Temp. Windchill Dew Point Humidity Pressure Visibility Wind Dir Wind Speed Gust Speed Precip Events Conditions
12:15 AM 25.7 °F 20.1 °F 23.0 °F 89% 30.47 in 4.0 mi East 4.6 mph - N/A   Clear
12:35 AM 25.7 °F - 23.4 °F 91% 30.48 in 7.0 mi Calm Calm - N/A   Scattered Clouds
12:55 AM 30.0 °F 24.1 °F 27.5 °F 90% 30.48 in 0.8 mi South 5.8 mph - N/A   Overcast
1:15 AM 33.1 °F 28.7 °F 30.9 °F 92% 30.48 in 0.2 mi SSE 4.6 mph - N/A Fog Fog
1:35 AM 33.1 °F 28.7 °F 30.9 °F 92% 30.48 in 0.2 mi SSE 4.6 mph - N/A   Light Drizzle
1:55 AM 34.7 °F 30.6 °F 32.2 °F 91% 30.48 in 0.2 mi SSE 4.6 mph - N/A Rain Light Rain
2:15 AM 35.6 °F 30.7 °F 33.1 °F 91% 30.48 in 0.2 mi South 5.8 mph - N/A Rain Light Rain
2:34 AM 35.6 °F - 33.1 °F 91% 30.49 in 0.2 mi Calm Calm - N/A Rain Light Rain
2:55 AM 35.6 °F - 33.1 °F 91% 30.50 in 0.2 mi Calm Calm - N/A Fog Fog
3:15 AM 35.6 °F - 33.1 °F 91% 30.50 in 0.2 mi Calm Calm - N/A Fog Fog
3:35 AM 35.6 °F 32.8 °F 33.1 °F 91% 30.50 in 0.2 mi South 3.5 mph - N/A Fog Fog
3:55 AM 35.6 °F - 33.1 °F 91% 30.50 in 0.2 mi Calm Calm - N/A Fog Fog
4:15 AM 35.6 °F - 33.1 °F 91% 30.50 in 0.2 mi Calm Calm - N/A Fog Fog
4:35 AM 35.6 °F - 33.1 °F 91% 30.51 in 0.2 mi Calm Calm - N/A Fog Fog
4:55 AM 35.6 °F 32.8 °F 33.3 °F 91% 30.51 in 0.2 mi SE 3.5 mph - N/A Fog Fog
5:15 AM 38.3 °F 35.9 °F 35.8 °F 91% 30.51 in 0.2 mi South 3.5 mph - N/A Rain Light Rain
5:35 AM 38.3 °F 35.9 °F 35.8 °F 91% 30.51 in 0.2 mi SSE 3.5 mph - N/A   Unknown
5:55 AM 38.3 °F - 35.8 °F 91% 30.52 in 0.2 mi Calm Calm - N/A Fog Fog
6:15 AM 38.3 °F - 35.8 °F 91% 30.52 in 0.2 mi Calm Calm - N/A Fog Fog
6:35 AM 38.3 °F 35.9 °F 35.8 °F 91% 30.52 in 0.2 mi SSE 3.5 mph - N/A Fog Fog
6:55 AM 38.3 °F 33.9 °F 35.8 °F 91% 30.52 in 0.2 mi SSE 5.8 mph - N/A Fog Fog
7:15 AM 38.3 °F 33.9 °F 35.8 °F 91% 30.52 in 0.2 mi South 5.8 mph - N/A   Light Drizzle
7:35 AM 38.3 °F 34.8 °F 35.8 °F 91% 30.52 in 0.2 mi SSE 4.6 mph - N/A Rain Light Rain
7:55 AM 38.3 °F 35.9 °F 35.8 °F 91% 30.53 in 0.2 mi SSE 3.5 mph - N/A Fog Fog
8:15 AM 38.3 °F 33.2 °F 35.8 °F 91% 30.53 in 0.2 mi South 6.9 mph - N/A Fog Fog
8:35 AM 38.3 °F 33.2 °F 35.8 °F 91% 30.54 in 0.2 mi South 6.9 mph - N/A Fog Fog
8:55 AM 38.3 °F 34.8 °F 35.8 °F 91% 30.54 in 0.2 mi SSE 4.6 mph - N/A Fog Fog
9:14 AM 38.3 °F 34.8 °F 35.8 °F 91% 30.54 in 0.2 mi SE 4.6 mph - N/A Fog Fog
9:35 AM 38.3 °F - 35.8 °F 91% 30.54 in 0.2 mi Calm Calm - N/A Fog Fog
9:55 AM 38.3 °F 34.8 °F 35.8 °F 91% 30.55 in 0.2 mi SE 4.6 mph - N/A Fog Fog
10:15 AM 38.3 °F 34.8 °F 35.8 °F 91% 30.55 in 0.2 mi SE 4.6 mph - N/A Fog Fog
10:35 AM 38.3 °F 34.8 °F 35.8 °F 91% 30.55 in 0.5 mi ESE 4.6 mph - N/A Fog Fog
10:55 AM 38.3 °F 34.8 °F 35.8 °F 91% 30.55 in 1.0 mi SSE 4.6 mph - N/A   Overcast
11:15 AM 38.7 °F 36.3 °F 36.3 °F 91% 30.55 in 1.2 mi SSE 3.5 mph - N/A   Overcast
11:35 AM 39.7 °F 35.6 °F 37.2 °F 91% 30.55 in 1.8 mi SE 5.8 mph - N/A   Overcast
11:55 AM 40.5 °F 37.3 °F 37.9 °F 91% 30.55 in 2.5 mi SSE 4.6 mph - N/A   Mostly Cloudy
12:15 PM 41.2 °F 37.3 °F 38.5 °F 90% 30.54 in 3.0 mi SE 5.8 mph - N/A   Scattered Clouds
12:35 PM 42.1 °F 38.4 °F 38.8 °F 88% 30.53 in 4.0 mi SE 5.8 mph - N/A   Clear
12:55 PM 45.5 °F 42.5 °F 40.8 °F 84% 30.51 in 5.0 mi SE 5.8 mph - N/A   Haze
1:15 PM 48.2 °F - 40.8 °F 76% 30.50 in 5.0 mi SSE 4.6 mph - N/A   Haze
1:35 PM 48.2 °F - 39.9 °F 73% 30.51 in 5.0 mi South 4.6 mph - N/A   Haze
1:55 PM 48.2 °F - 36.5 °F 64% 30.50 in 7.0 mi SW 8.1 mph - N/A   Clear
2:15 PM 50.2 °F - 37.9 °F 63% 30.50 in 5.0 mi SSW 9.2 mph - N/A   Haze
2:35 PM 49.3 °F - 36.0 °F 60% 30.50 in 7.0 mi SSW 10.4 mph - N/A   Clear
2:55 PM 48.2 °F - 34.7 °F 60% 30.50 in 7.0 mi SSW 9.2 mph - N/A   Clear
3:15 PM 48.2 °F - 34.9 °F 60% 30.50 in 7.0 mi SSW 6.9 mph - N/A   Clear
3:35 PM 48.2 °F - 36.0 °F 63% 30.50 in 7.0 mi SW 8.1 mph - N/A   Clear
3:55 PM 48.2 °F - 34.2 °F 58% 30.50 in 7.0 mi SSW 5.8 mph - N/A   Clear
4:15 PM 48.2 °F - 32.4 °F 54% 30.50 in 10.0 mi SSW 6.9 mph - N/A   Clear
4:35 PM 48.2 °F - 33.3 °F 56% 30.50 in 10.0 mi SSW 4.6 mph - N/A   Clear
4:55 PM 45.1 °F 42.8 °F 32.0 °F 60% 30.50 in 10.0 mi SSW 4.6 mph - N/A   Clear
5:15 PM 42.8 °F 40.1 °F 30.4 °F 62% 30.50 in 10.0 mi South 4.6 mph - N/A   Clear
5:35 PM 42.1 °F - 29.5 °F 61% 30.50 in 10.0 mi Calm Calm - N/A   Clear
5:55 PM 41.2 °F 39.2 °F 28.8 °F 61% 30.50 in 10.0 mi South 3.5 mph - N/A   Clear
6:15 PM 39.0 °F - 27.1 °F 62% 30.50 in 10.0 mi Calm Calm - N/A   Clear
6:35 PM 35.6 °F - 28.4 °F 75% 30.49 in 10.0 mi Calm Calm - N/A   Clear
6:55 PM 33.1 °F - 27.9 °F 81% 30.49 in 10.0 mi Calm Calm - N/A   Clear
7:15 PM 33.1 °F - 28.0 °F 82% 30.49 in 10.0 mi Calm Calm - N/A   Clear
7:35 PM 33.1 °F - 28.4 °F 83% 30.49 in 10.0 mi Calm Calm - N/A   Clear
7:55 PM 32.0 °F - 28.0 °F 85% 30.48 in 10.0 mi Calm Calm - N/A   Clear
8:15 PM 29.1 °F - 25.2 °F 85% 30.48 in 10.0 mi Calm Calm - N/A   Clear
8:35 PM 29.8 °F - 26.1 °F 86% 30.48 in 7.0 mi Calm Calm - N/A   Clear
8:55 PM 29.7 °F - 26.2 °F 87% 30.48 in 10.0 mi Calm Calm - N/A   Clear
9:15 PM 29.1 °F - 25.7 °F 87% 30.49 in 10.0 mi Calm Calm - N/A   Clear
9:55 PM 30.2 °F - 25.9 °F 84% 30.48 in 10.0 mi Calm Calm - N/A   Clear
10:15 PM 33.1 °F - 28.0 °F 82% 30.48 in 10.0 mi Calm Calm - N/A   Clear
10:35 PM 32.2 °F 27.7 °F 25.7 °F 77% 30.48 in 10.0 mi SE 4.6 mph - N/A   Clear
10:55 PM 35.1 °F 30.1 °F 27.1 °F 73% 30.48 in 10.0 mi SE 5.8 mph - N/A   Clear
11:15 PM 35.6 °F 32.8 °F 27.3 °F 72% 30.48 in 10.0 mi SE 3.5 mph - N/A   Clear
11:35 PM 35.6 °F 30.7 °F 27.0 °F 71% 30.48 in 10.0 mi SE 5.8 mph - N/A   Clear
11:55 PM 35.6 °F 30.7 °F 26.6 °F 70% 30.48 in 10.0 mi SE 5.8 mph - N/A   Clear